LiveATC.Net - Listen to live air traffic control over the Internet!


ICAO: KHWV  IATA: HWV   Airport: Brookhaven Airport
City: Shirley   State/Province: New York
Country: United States   Continent: North America
KHWV METAR Weather: KHWV 231256Z AUTO 05008G17KT 020V090 10SM OVC021 04/00 A2987 RMK AO2 PK WND 03026/1228 SLP115 T00390000 TSNO
KHWV Flight Activity (FlightAware)
KHWV Airport Info   (AirNav) (iFlightPlanner)
KHWV VFR Sectional Chart   (iFlightPlanner) 
KHWV IFR Low Chart   (iFlightPlanner) 
KHWV CTAF
Feed Status: DOWN
Last heard on: 2017-01-23 07:29:03 (0 days 7 hours 27 minutes ago)
KHWV CTAF Audio Archives
FacilityFrequency
Brookhaven CTAF122.800
Emergency/Guard121.500

Sponsored by Stephen Trapp and Long Islsnd Soaring Association (LISA)

NOTICE

Unauthorized use prohibited. See LiveATC.net Terms of Service


Find LiveATC Audio Streams


Airport/ARTCC Code

Frequency Search
(e.g., 124.400, 128.75)
Site-wide search
 


Browse LiveATC Feeds
LiveATC Coverage Map
Top 50 LiveATC Feeds
Bad Weather Areas

LiveATC FAQ
Offer a LiveATC Feed
Contact LiveATC.net
Press Inquiries

LiveATC on iPhone
LiveATC on Android

Windows Phone
Windows 8/10

LiveATC Mobile
(Mobile browser)

ATC Audio Archives
Interesting Recordings

LiveATC Forums


Home Page
About LiveATC.net
Make a Donation
LiveATC Store

Terms of Use
Privacy Policy

Canadian Air Freqs

AIRMETs/SIGMETs

FAA Airport Status
Nat'l Airspace Status
Arrival Demand Charts


Server Software By:
Icecast.org
Liquidsoap